Home > Weather > Ahlen > Past weeks

Flag for Germany Weather for the Past 2 Weeks in Ahlen, North Rhine-Westphalia, Germany

Now
36 °F

Clear.


Feels Like: 29 °F
Forecast: 34 / 43 °F
Wind: 8 mph from Southwest

Location: Dortmund / Wickede

Current Time: Feb 11, 2016 at 8:18:48 PM

Latest Report: Feb 11, 2016 at 7:50 PM


Visibility: 10 mi

Pressure: 29.65 "Hg

Humidity: 81%

Dew point: 30 °F

Location of AhlenLocation

Historic Weather in Ahlen — Graph

°F

Ahlen Temperature Yesterday

Maximum temperature yesterday: 39 °F (at 2:20 PM)
Minimum temperature yesterday: 34 °F (at 8:50 AM)
Average temperature yesterday: 38 °F

High & Low Weather Summary for the Past Weeks

 TemperatureHumidityPressure
High52 °F (Jan 27, 6:20 PM)94% (Feb 1, 7:20 AM)30.30 "Hg (Feb 1, 7:20 AM)
Low34 °F (Feb 9, 9:20 PM)53% (Jan 28, 2:20 PM)28.82 "Hg (Feb 9, 3:50 PM)
Average43 °F76%29.80 "Hg
* Reported Jan 27 6:20 PM — Feb 11 6:50 PM, Ahlen, Weather by CustomWeather, © 2016

Note: Actual official high and low records may vary slightly from our data, if they occured in-between our weather recording intervals... More about our weather records

Advertising

Ahlen Weather History for the Previous 24 Hours

 ConditionsComfort  
Time TempWeatherWind HumidityBarometerVisibility
6:50 PM
Thu, Feb 11
37 °FClear.10 mph75%29.65 "Hg10 mi
6:20 PM37 °FClear.9 mph75%29.65 "Hg10 mi
5:50 PM39 °FClear.8 mph70%29.65 "Hg10 mi
5:20 PM39 °FScattered clouds.9 mph70%29.65 "HgN/A
4:50 PM41 °FScattered clouds.10 mph66%29.65 "HgN/A
4:20 PM41 °FPassing clouds.12 mph66%29.65 "HgN/A
3:50 PM41 °FSunny.10 mph66%29.65 "Hg10 mi
3:20 PM41 °FPassing clouds.14 mph61%29.65 "HgN/A
2:50 PM41 °FScattered clouds.12 mph61%29.65 "HgN/A
2:20 PM41 °FScattered clouds.13 mph66%29.65 "HgN/A
1:50 PM43 °FScattered clouds.15 mph66%29.65 "HgN/A
1:20 PM41 °FSunny.15 mph70%29.65 "Hg10 mi
12:50 PM41 °FPartly sunny.13 mph70%29.65 "HgN/A
12:20 PM41 °FScattered clouds.15 mph70%29.65 "HgN/A
11:50 AM41 °FPartly sunny.13 mph70%29.65 "HgN/A
11:20 AM39 °FPartly sunny.13 mph75%29.65 "HgN/A
10:50 AM41 °FPartly sunny.13 mph70%29.65 "HgN/A
10:20 AM39 °FPartly sunny.14 mph75%29.65 "HgN/A
9:50 AM37 °FPartly sunny.12 mph87%29.62 "HgN/A
9:20 AM37 °FPartly sunny.10 mph81%29.62 "HgN/A
8:50 AM37 °FPartly sunny.9 mph81%29.62 "Hg6 mi
8:20 AM37 °FPartly sunny.10 mph87%29.62 "Hg5 mi
7:50 AM37 °FPassing clouds.10 mph87%29.62 "Hg6 mi
7:20 AM37 °FPassing clouds.10 mph87%29.59 "HgN/A
6:50 AM37 °FPartly cloudy.13 mph87%29.59 "HgN/A
6:20 AM37 °FPassing clouds.15 mph87%29.59 "HgN/A
5:50 AM37 °FPassing clouds.15 mph87%29.59 "HgN/A
5:20 AM37 °FClear.12 mph81%29.59 "Hg10 mi
10:50 PM
Wed, Feb 10
39 °FPassing clouds.12 mph87%29.50 "HgN/A
10:20 PM37 °FPassing clouds.10 mph87%29.47 "HgN/A
9:50 PM39 °FPassing clouds.10 mph87%29.47 "HgN/A
9:20 PM37 °FPassing clouds.13 mph93%29.47 "HgN/A
8:50 PM37 °FPassing clouds.13 mph93%29.45 "HgN/A
8:20 PM37 °FPassing clouds.13 mph93%29.45 "HgN/A
Weather by CustomWeather, © 2016

See weather overviewHow to use our weather pages